Home   Weather   Stralsund   Past weeks

Flag for Germany Past Weather in Stralsund, Mecklenburg-Western Pomerania, Germany — Yesterday and Last 2 Weeks

Now
41 °F

Rain. Passing clouds.


Feels Like: 34 °F
Forecast: 39 / 44 °F
Wind: 12 mph from Southwest

Location: Laage

Current Time: Feb 22, 2017 at 5:05:38 am

Latest Report: Feb 22, 2017 at 4:20 am


Visibility: 4 mi

Pressure: 29.47 "Hg

Humidity: 93%

Dew Point: 39 °F

Location of StralsundLocation

Past Weather in Stralsund — Graph

°F

Stralsund Temperature Yesterday

Maximum temperature yesterday: 46 °F (at 12:20 am)
Minimum temperature yesterday: 39 °F (at 9:05 pm)
Average temperature yesterday: 44 °F

High & Low Weather Summary for the Past Weeks

 TemperatureHumidityPressure
High50 °F (Feb 16, 12:56 pm)100% (Feb 17, 10:20 am)30.69 "Hg (Feb 17, 10:20 am)
Low19 °F (Feb 9, 11:20 pm)46% (Feb 15, 2:20 pm)29.53 "Hg (Feb 22, 3:20 am)
Average33 °F80%30.27 "Hg
* Reported Feb 7 3:20 am — Feb 22 3:20 am, Stralsund, Weather by CustomWeather, © 2017

Note: Actual official high and low records may vary slightly from our data, if they occured in-between our weather recording intervals... More about our weather records

Advertising

Stralsund Weather History for the Previous 24 Hours

Scroll right to see more
 ConditionsComfort  
Time TempWeatherWind HumidityBarometerVisibility
3:20 am
Wed, Feb 22
41 °FLight rain. Passing clouds.12 mph87%29.53 "HgN/A
2:20 am39 °FPartly cloudy.12 mph87%29.62 "HgN/A
1:20 am39 °FPassing clouds.8 mph87%29.68 "HgN/A
12:20 am39 °FPassing clouds.9 mph81%29.71 "HgN/A
11:20 pm
Tue, Feb 21
39 °FPassing clouds.9 mph87%29.74 "HgN/A
10:20 pm39 °FPassing clouds.10 mph87%29.77 "HgN/A
9:20 pm39 °FPassing clouds.9 mph81%29.77 "HgN/A
9:05 pm39 °FPassing clouds.10 mph81%29.77 "HgN/A
8:20 pm41 °FPassing clouds.12 mph76%29.77 "HgN/A
7:20 pm43 °FPassing clouds.16 mph71%29.77 "HgN/A
6:20 pm43 °FPassing clouds.16 mph76%29.77 "HgN/A
5:50 pm45 °FPassing clouds.22 mph71%29.77 "HgN/A
5:20 pm45 °FBroken clouds.18 mph71%29.74 "HgN/A
4:20 pm46 °FScattered clouds.17 mph66%29.74 "HgN/A
3:50 pm46 °FBroken clouds.20 mph66%29.74 "HgN/A
3:20 pm46 °FPartly sunny.22 mph66%29.71 "HgN/A
2:44 pm46 °FPartly sunny.28 mph66%29.71 "HgN/A
2:20 pm46 °FPassing clouds.28 mph66%29.71 "HgN/A
1:20 pm46 °FPartly sunny.25 mph66%29.68 "HgN/A
12:20 pm46 °FPartly sunny.23 mph71%29.68 "HgN/A
11:20 am45 °FPartly sunny.24 mph76%29.68 "HgN/A
10:35 am45 °FPartly sunny.23 mph76%29.68 "HgN/A
9:20 am43 °FPartly sunny.17 mph76%29.65 "HgN/A
8:20 am43 °FLight rain. Partly sunny.22 mph81%29.65 "HgN/A
7:41 am43 °FLight rain. More clouds than sun.16 mph87%29.65 "HgN/A
7:20 am43 °FLight rain. Partly sunny.15 mph87%29.65 "HgN/A
6:20 am45 °FLight rain. Passing clouds.16 mph81%29.62 "HgN/A
5:20 am45 °FPassing clouds.20 mph81%29.62 "HgN/A
Weather by CustomWeather, © 2017

See weather overviewHow to use our weather pages